Location: Proctor
(47.8934°N, 114.3048°W)
Time: 06:06:02
(UTC+00:00)

Envisat - Pass Details

Date: 27 May 2024
Orbit: 762 x 764 km, 98.3° (Epoch: 13 June)

Event Time Altitude Azimuth Distance (km) Brightness Sun altitude
Rises 10:40:59 0° 17° (NNE) 3,239 7.5 -9.1°
Reaches altitude 10° 10:43:21 10° 22° (NNE) 2,308 6.8 -8.8°
Maximum altitude 10:48:21 56° 100° (E) 909 3.6 -8.2°
Drops below altitude 10° 10:53:18 10° 179° (S) 2,290 5.1 -7.6°
Sets 10:55:38 0° 183° (S) 3,212 5.8 -7.3°
Enters shadow 10:55:48 -1° 184° (S) 3,275 5.8 -7.3°
